EHI
0 1 4 6 10 22 32 35 38 39 35 30 23 13 5 1 0 0 0 0 0 0 0 0 0 0 0 0 0 0 0 0 0 0 0 0 0 0 0 0 0 0 0
0 1 5 9 13 21 29 32 33 32 28 24 18 10 3 1 0 0 0 0 0 0 0 0 0 0 0 0 0 0 0 0 0 0 0 0 0 0 0 0 0 0 0
0 1 6 13 18 21 25 28 27 24 20 17 12 5 1 0 0 0 0 0 0 0 0 0 0 0 0 0 0 0 0 0 0 0 0 0 0 0 0 0 0 0 0
1 2 9 19 24 24 27 28 24 18 15 13 8 3 0 0 0 0 0 0 0 0 0 0 0 0 0 0 0 0 0 0 0 0 0 0 0 0 0 0 0 0 0
1 2 14 28 32 30 30 28 22 15 11 9 5 2 1 0 1 1 1 0 0 0 0 0 0 0 0 0 0 0 0 0 0 0 0 0 0 0 0 0 0 0 0
4 5 18 35 39 34 31 26 20 13 8 6 4 3 2 2 2 2 1 0 0 0 0 0 0 0 0 0 0 0 0 0 0 0 0 0 0 0 0 0 0 0 0
13 11 22 39 42 36 31 25 19 11 6 4 3 3 3 3 3 2 1 0 0 0 0 0 0 0 0 0 0 0 0 0 0 0 0 0 0 0 0 0 0 0 0
27 23 26 36 37 33 30 25 17 9 5 3 3 3 3 2 2 2 1 0 0 0 0 0 0 0 0 0 1 1 0 0 0 0 0 0 0 0 0 0 0 0 0
37 35 31 29 27 25 24 21 16 9 4 3 3 2 1 1 1 1 0 0 0 0 0 0 0 0 0 1 2 2 1 0 0 0 0 0 0 0 0 0 0 0 0
38 37 34 27 21 17 15 14 13 8 4 3 3 1 0 0 0 0 0 0 0 0 0 0 0 0 0 1 2 3 2 1 0 0 0 0 0 0 0 0 0 0 0
34 31 27 25 20 15 12 10 9 6 4 3 3 1 0 0 0 0 0 1 1 0 0 0 0 0 0 1 2 2 1 1 0 0 0 0 0 0 0 0 0 0 0
35 28 21 20 21 18 14 10 8 5 3 3 2 1 0 0 0 0 0 1 1 0 0 0 0 0 0 0 1 1 0 0 0 0 0 0 0 0 0 0 0 0 0
41 31 22 22 23 19 15 12 9 5 2 2 1 1 0 0 0 0 0 0 0 0 0 0 0 0 0 0 0 0 0 0 0 0 0 0 0 0 0 0 0 0 0
44 37 27 26 26 20 16 14 11 5 2 0 0 0 0 0 0 0 0 0 0 0 0 0 0 0 0 0 0 0 0 0 0 0 0 0 0 0 0 0 0 0 0
44 39 34 31 29 24 19 18 14 7 2 0 0 0 0 0 0 0 0 0 0 0 0 0 0 0 0 0 0 0 0 0 0 0 0 0 0 0 0 0 0 0 0
38 38 37 34 29 26 23 22 18 10 5 2 0 0 0 0 0 0 0 0 0 0 0 0 0 0 0 0 0 0 0 0 0 0 0 0 0 0 0 0 0 0 0
32 34 36 32 27 24 22 20 17 13 9 4 1 0 0 0 0 0 0 0 0 0 0 0 0 0 0 0 0 0 0 0 0 0 0 0 0 0 0 0 0 0 0
29 32 34 31 25 21 17 14 12 11 10 7 2 0 0 0 0 0 0 0 0 0 0 0 0 0 0 0 0 0 0 0 0 0 0 0 0 0 0 0 0 0 0
28 31 33 31 25 17 12 9 8 7 7 6 3 1 0 0 0 0 0 0 0 0 0 0 0 0 0 0 0 0 0 0 0 0 0 0 0 0 0 0 0 0 0
29 30 30 27 22 16 11 8 6 5 5 5 4 2 1 0 0 0 0 0 0 0 0 0 0 0 0 0 0 0 0 0 0 0 0 0 0 0 0 0 0 0 0
32 31 27 23 20 18 15 11 7 4 4 4 4 2 1 0 0 0 0 0 0 0 0 0 0 0 0 0 0 0 0 0 0 0 0 0 0 0 0 0 0 0 0
38 34 29 25 22 20 17 13 7 4 4 4 4 2 1 0 0 0 0 0 0 0 0 0 0 0 0 0 0 0 0 0 0 0 0 0 0 0 0 0 0 0 0
41 37 32 28 26 21 17 12 8 5 5 4 3 2 1 0 0 0 0 0 0 0 0 0 0 0 0 0 0 0 0 0 0 0 0 0 0 0 0 0 0 0 0
37 35 33 31 27 20 15 12 10 9 7 4 2 1 1 0 0 0 0 0 0 0 0 0 0 0 0 0 0 0 0 0 0 0 0 0 0 0 0 0 0 0 0
30 31 32 31 25 18 13 12 12 12 9 5 2 1 0 0 0 0 0 0 0 0 0 0 0 0 0 0 0 0 0 0 0 0 0 0 0 0 0 0 0 0 0
27 29 31 29 24 17 13 11 12 13 9 5 2 1 0 0 0 0 0 0 0 0 0 0 0 0 0 0 0 0 0 0 0 0 0 0 0 0 0 0 0 0 0
Wind_Speed
7 9 16 16 16 16 17 17 17 17 17 17 17 16 16 15 15 14 14 13 12 12 13 13 13 14 14 14 14 15 15 15 15 15 15 15 15 16 16 16 15 13 17
12 12 17 17 17 16 17 17 17 17 17 16 16 16 15 15 14 14 13 13 13 13 13 13 14 14 15 15 15 15 14 14 14 15 15 14 15 15 15 15 14 11 16
14 12 15 17 17 17 16 16 16 16 16 16 15 15 15 14 14 13 13 13 13 14 14 14 14 14 15 15 14 14 14 14 14 15 14 10 11 14 15 15 15 15 15
14 10 12 18 17 17 16 16 16 16 15 15 15 14 14 14 13 13 13 13 13 13 14 14 14 14 14 14 14 13 13 14 14 14 8 8 9 13 14 14 15 15 14
12 9 13 19 18 17 16 16 15 15 15 14 14 14 13 13 13 13 13 13 13 13 13 14 14 14 13 13 13 12 12 13 13 11 7 7 7 12 14 14 14 14 13
11 9 12 19 18 17 16 16 15 15 14 14 13 13 13 12 12 13 12 13 13 13 13 13 13 13 13 12 12 12 12 13 11 8 7 7 7 11 13 13 13 13 12
10 8 11 18 18 17 16 16 15 14 14 13 13 12 12 12 12 12 12 12 12 13 13 13 12 12 11 11 11 11 12 13 8 7 7 6 7 10 12 12 12 12 12
12 9 10 18 18 17 16 16 15 14 14 13 13 12 12 12 12 11 11 12 12 12 12 12 11 11 10 9 10 11 12 12 9 8 6 5 8 10 11 11 11 11 11
9 8 7 9 13 16 16 16 15 14 14 13 13 12 12 12 11 11 11 11 11 11 11 11 10 10 9 8 10 10 11 11 7 5 6 4 8 10 11 11 10 11 10
8 7 6 7 7 7 9 15 15 14 14 13 13 12 12 12 11 11 9 10 11 11 10 10 10 9 8 8 9 9 10 10 6 5 4 5 9 10 11 10 10 9 9
10 6 6 6 6 6 6 11 12 13 13 12 11 12 10 5 5 6 8 9 10 10 10 9 9 8 7 6 7 9 9 4 5 4 4 7 9 10 10 10 10 9 9
12 9 7 7 7 6 7 5 4 5 5 5 4 5 4 4 3 5 6 9 9 9 8 8 7 6 4 3 4 7 3 5 4 4 4 9 9 9 9 9 9 9 8
13 11 9 8 7 6 4 4 3 2 3 4 5 5 4 3 2 3 2 3 3 5 3 4 3 3 3 2 2 3 4 4 3 3 4 9 9 9 9 9 9 9 8
12 12 10 8 7 6 4 4 4 3 3 3 4 6 4 3 2 2 2 2 2 2 2 2 2 2 2 2 3 3 4 3 3 2 3 8 8 9 9 9 9 9 8
12 12 12 10 9 7 5 4 5 4 4 4 4 5 5 4 3 3 2 2 2 2 2 2 2 2 2 2 2 4 4 4 4 3 2 8 9 8 9 9 9 9 8
13 12 12 12 10 8 6 5 5 5 4 4 4 5 5 4 4 3 3 2 2 2 2 2 2 2 1 1 2 3 4 4 4 4 3 4 8 8 9 9 9 9 9
11 11 11 11 10 9 8 7 6 5 5 5 4 5 5 5 4 4 3 3 2 2 2 2 2 2 2 1 2 2 2 3 4 4 4 3 3 6 8 8 9 9 9
9 10 11 11 11 10 8 6 5 5 5 5 4 5 6 6 5 4 3 3 3 3 2 2 2 2 2 2 1 1 1 2 3 4 4 3 3 3 5 8 8 8 9
9 9 10 10 11 10 8 6 5 5 5 4 4 4 5 6 6 5 4 3 4 3 3 3 2 2 2 2 2 1 1 1 2 3 4 4 4 4 3 5 7 8 9
9 9 9 9 9 8 6 5 4 4 4 4 5 5 6 6 7 5 4 4 4 3 3 3 3 2 2 2 2 1 1 0 1 2 3 3 4 5 5 4 4 5 8
9 10 10 9 8 7 6 6 6 5 4 4 5 7 7 6 7 6 4 4 4 4 4 5 3 3 2 2 2 2 2 1 1 2 2 3 4 5 5 5 4 4 3
10 10 9 10 10 9 7 6 4 4 4 4 4 5 7 8 8 7 6 5 5 4 4 4 3 3 2 2 3 2 1 2 1 1 2 3 4 3 5 5 5 5 4
9 10 10 10 10 10 8 5 4 4 3 4 5 5 6 8 8 6 7 6 6 5 5 5 5 5 3 2 1 3 3 3 2 1 1 2 3 3 4 4 5 5 5
8 8 7 8 9 10 10 9 9 8 7 6 5 5 5 7 7 7 7 7 6 5 5 5 5 3 4 3 1 1 2 3 2 1 1 1 2 4 4 4 5 5 5
6 7 7 7 8 8 9 10 9 7 5 4 5 6 6 6 6 7 7 7 6 5 6 6 5 4 3 4 3 3 2 1 1 2 1 2 1 2 3 4 4 4 5
6 6 6 7 7 7 8 8 9 8 7 7 7 7 6 4 4 6 7 6 6 5 6 6 6 6 4 4 3 3 3 3 3 3 2 2 2 2 2 3 4 4 4
Wind_Direction
156 156 149 143 135 128 123 120 119 119 120 121 121 123 124 125 124 123 121 118 116 114 113 112 111 110 112 112 110 109 108 109 109 109 108 108 109 109 109 108 107 107 109
147 153 151 145 139 133 128 125 124 123 123 124 124 125 126 126 125 123 121 119 118 115 114 113 112 111 113 112 111 110 110 111 111 111 110 110 110 109 110 111 110 113 113
143 150 150 147 142 137 133 131 129 128 128 127 127 127 127 127 127 125 123 122 120 117 115 114 113 113 113 113 113 112 111 111 111 108 104 103 109 111 112 113 114 113 112
143 146 149 148 145 141 137 135 133 132 131 130 130 130 130 130 130 128 126 124 122 120 118 117 116 115 116 115 115 114 113 110 109 105 96 103 110 114 114 113 113 113 112
142 144 154 151 148 145 142 139 138 136 135 134 133 133 132 132 132 130 128 127 125 123 122 120 118 118 119 118 118 118 117 114 109 101 95 95 102 116 115 115 115 115 114
143 146 158 153 151 149 146 143 142 140 139 139 138 137 136 135 134 131 130 129 127 125 124 122 120 120 122 123 123 123 123 118 108 104 102 105 111 120 120 120 119 117 116
144 149 158 156 155 153 150 148 147 145 144 143 142 141 140 139 135 133 132 130 128 127 126 125 124 125 126 126 127 128 126 124 115 111 109 112 120 123 123 123 121 120 119
148 150 157 160 158 157 155 153 153 151 150 148 146 146 144 141 137 136 136 134 133 132 130 129 128 127 124 125 130 133 133 130 124 121 117 119 128 127 127 125 125 124 123
147 148 154 159 161 162 160 158 157 156 156 154 151 150 149 145 143 142 141 139 138 136 134 133 131 129 125 125 130 135 139 133 124 128 131 127 135 135 132 131 130 130 130
148 152 152 151 151 155 160 164 163 162 162 159 157 156 154 152 148 146 143 145 143 141 139 138 135 132 128 128 133 140 140 132 130 133 132 143 144 143 140 139 136 134 136
161 160 153 149 146 146 155 170 166 167 168 163 162 162 152 131 132 141 150 152 148 147 144 142 140 135 127 127 136 142 134 131 136 137 143 154 153 151 148 146 143 141 141
173 172 164 159 154 154 167 160 152 158 157 149 142 140 121 118 134 143 163 160 155 152 149 146 140 128 107 99 118 123 126 141 140 146 160 165 162 160 156 154 152 151 148
172 174 174 167 162 162 156 147 142 137 138 138 138 130 124 119 125 124 128 148 144 144 122 119 109 97 102 106 106 121 141 144 145 154 170 173 170 169 165 162 162 161 159
172 177 173 170 168 168 157 155 149 149 149 149 146 142 137 135 134 133 127 119 106 105 113 103 104 105 113 124 133 143 152 152 155 156 180 181 177 178 175 171 170 172 171
178 178 174 173 178 172 165 167 165 163 162 156 152 154 154 155 159 154 149 141 137 129 132 131 130 131 131 142 157 160 165 169 169 171 184 190 185 186 185 183 182 183 182
184 182 177 178 180 175 176 175 169 168 163 159 162 167 166 165 165 164 165 167 168 162 154 151 152 140 138 148 164 172 175 175 179 176 186 199 197 193 194 193 192 191 192
184 180 180 181 180 183 182 181 174 171 167 170 172 172 174 173 171 172 175 183 185 169 153 133 132 122 136 142 158 173 175 183 185 184 190 199 205 206 203 202 200 199 199
177 179 180 186 186 188 187 182 176 175 172 175 176 178 179 179 176 176 183 192 179 161 152 146 140 131 136 142 151 172 168 187 196 193 194 200 200 210 216 213 208 206 207
178 180 181 187 187 189 187 181 178 171 173 174 179 182 182 184 182 183 189 188 168 160 162 167 140 142 151 153 163 152 166 195 207 206 205 211 207 207 213 225 223 215 218
175 178 186 191 188 182 175 170 168 172 177 177 183 185 182 185 185 181 184 179 168 164 165 160 143 125 127 142 135 97 46 269 227 224 220 219 218 216 215 222 225 228 229
178 177 183 188 189 177 175 182 183 190 184 189 191 184 181 185 186 182 183 174 174 177 175 166 144 133 116 121 98 55 9 354 249 235 227 221 225 223 216 219 219 221 230
182 181 186 188 184 184 184 181 177 173 180 195 197 186 183 187 188 188 180 178 178 168 162 166 148 134 125 137 130 113 25 341 314 243 219 219 227 225 226 224 218 218 223
184 185 188 187 183 183 173 166 161 157 155 174 189 190 192 189 188 184 184 179 177 173 176 177 167 151 149 148 150 145 152 219 284 309 254 230 225 222 231 228 224 223 221
191 182 181 184 183 181 171 176 178 185 189 188 184 187 183 187 186 184 181 178 177 175 174 179 170 159 148 159 156 128 143 155 160 280 313 274 240 230 233 232 230 225 220
175 171 177 180 183 178 176 182 184 191 190 169 169 176 182 186 186 184 180 178 179 179 178 175 165 167 163 163 164 153 132 103 126 155 246 294 283 244 231 229 232 230 223
160 158 164 171 178 176 180 187 189 189 180 170 176 180 182 182 183 184 179 179 179 180 179 179 173 173 174 165 165 162 158 160 179 170 195 236 258 272 250 232 230 230 227